period_start,C,m1,H,J0,J1,J2,J3,J4,J5,JA,JB,JC,JD,JJ,JK,JN,#
2017-07-19 00:04:28,-0.00,1.18,0.00,20.91,25.30,28.24,13.97,45.74,1009.29,2039.98,3118.10,2756.28,3169.14,600.17,595.99,24.01,0000 0000 0000 0000 000000
2017-07-19 00:09:29,-0.02,1.18,0.00,20.90,25.28,28.22,14.00,45.67,1009.29,2039.98,3118.27,2756.56,3169.45,600.08,595.92,24.06,0000 0000 0000 0000 000000
2017-07-19 00:14:30,-0.01,1.18,0.00,20.89,25.27,28.21,14.02,45.73,1009.29,2039.98,3118.64,2756.88,3169.84,600.25,596.20,24.11,0000 0000 0000 0000 000000
2017-07-19 00:19:31,-0.00,1.18,0.00,20.88,25.26,28.20,14.03,45.71,1009.29,2039.99,3118.93,2756.95,3169.97,600.24,596.31,24.16,0000 0000 0000 0000 000000
2017-07-19 00:24:32,0.00,1.18,0.00,20.87,25.25,28.20,13.93,45.69,1009.29,2039.99,3118.91,2756.97,3169.97,600.30,596.39,24.21,0000 0000 0000 0000 000000
2017-07-19 00:29:33,0.00,1.18,0.00,20.86,25.23,28.20,13.99,45.74,1009.29,2039.99,3118.94,2756.98,3169.98,599.95,596.04,24.26,0000 0000 0000 0000 000000
2017-07-19 00:34:34,0.00,1.17,0.00,20.85,25.22,28.20,13.91,45.59,1009.29,2039.99,3118.98,2756.99,3169.99,599.90,595.95,24.31,0000 0000 0000 0000 000000
2017-07-19 00:39:36,0.00,1.17,0.00,20.84,25.21,28.17,13.93,45.73,1009.29,2039.99,3118.99,2756.99,3169.99,600.18,596.40,24.36,0000 0000 0000 0000 000000
2017-07-19 00:44:37,0.00,1.17,0.00,20.84,25.20,28.16,14.05,45.81,1009.30,2040.00,3118.96,2756.99,3170.00,600.48,596.56,24.41,0000 0000 0000 0000 000000
2017-07-19 00:49:38,0.07,1.18,0.00,20.83,25.19,28.14,14.03,45.85,1009.32,2040.00,3118.03,2756.53,3169.32,599.93,596.10,24.46,0000 0000 0000 0000 000000
2017-07-19 00:54:39,0.03,1.18,0.00,20.82,25.17,28.15,13.86,45.41,1009.37,2040.02,3116.98,2755.99,3168.15,599.45,595.64,24.51,0000 0000 0000 0000 000000
2017-07-19 00:59:40,0.02,1.18,0.00,20.83,25.17,28.14,14.00,45.50,1009.36,2040.19,3116.87,2755.98,3168.26,599.73,595.82,24.56,0000 0000 0000 0000 000000
2017-07-19 01:04:42,0.00,1.18,0.00,20.82,25.15,28.15,13.97,45.39,1009.34,2040.35,3116.96,2755.99,3168.56,600.41,596.69,24.61,0000 0000 0000 0000 000000
2017-07-19 01:09:43,0.01,1.18,0.00,20.81,25.15,28.13,13.99,45.53,1009.68,2040.58,3116.99,2755.99,3168.88,599.84,596.23,24.67,0000 0000 0000 0000 000000
2017-07-19 01:14:44,0.01,1.18,0.00,20.79,25.13,28.13,13.94,45.48,1009.71,2040.70,3116.99,2755.99,3168.93,599.81,596.29,24.72,0000 0000 0000 0000 000000
2017-07-19 01:19:46,-0.02,1.18,0.00,20.79,25.12,28.09,13.97,45.63,1009.70,2040.49,3116.99,2755.99,3168.86,599.98,596.43,24.77,0000 0000 0000 0000 000000
2017-07-19 01:24:47,0.04,1.18,0.00,20.79,25.12,28.09,14.01,45.63,1009.77,2040.73,3116.94,2755.99,3168.35,600.15,596.59,24.82,0000 0000 0000 0000 000000
2017-07-19 01:29:49,0.02,1.18,0.00,20.78,25.10,28.12,13.90,45.64,1009.76,2040.81,3116.67,2755.96,3168.12,599.75,596.25,24.87,0000 0000 0000 0000 000000
2017-07-19 01:34:50,0.06,1.19,0.00,20.77,25.10,28.07,13.99,45.67,1009.77,2040.97,3115.56,2755.17,3167.77,599.83,596.44,24.92,0000 0000 0000 0000 000000
2017-07-19 01:39:51,0.00,1.19,0.00,20.76,25.08,28.06,13.95,45.53,1009.77,2040.99,3115.10,2755.01,3167.51,599.98,596.65,24.97,0000 0000 0000 0000 000000
2017-07-19 01:44:53,-0.01,1.19,0.00,20.76,25.07,28.06,14.00,45.40,1009.78,2040.99,3115.50,2755.08,3167.83,599.96,596.38,25.02,0000 0000 0000 0000 000000
2017-07-19 01:49:54,-0.01,1.19,0.00,20.75,25.07,28.06,13.93,45.56,1009.78,2040.99,3115.88,2755.27,3167.96,599.86,596.53,25.07,0000 0000 0000 0000 000000
2017-07-19 01:54:55,0.01,1.19,0.00,20.75,25.05,28.05,13.99,45.52,1009.78,2040.99,3115.61,2755.25,3167.92,600.15,596.63,25.12,0000 0000 0000 0000 000000
2017-07-19 01:59:57,-0.02,1.19,0.00,20.74,25.05,28.03,13.89,45.51,1009.78,2040.99,3115.77,2755.38,3167.92,599.84,596.54,25.17,0000 0000 0000 0000 000000
2017-07-19 02:04:58,-0.01,1.19,0.00,20.74,25.04,28.05,13.98,45.45,1009.78,2040.99,3115.94,2755.80,3167.98,599.91,596.53,25.22,0000 0000 0000 0000 000000
2017-07-19 02:09:59,0.00,1.19,0.00,20.74,25.02,28.02,13.93,45.54,1009.78,2040.99,3115.98,2755.96,3167.99,599.89,596.38,25.27,0000 0000 0000 0000 000000
2017-07-19 02:15:01,0.00,1.19,0.00,20.74,25.02,28.02,13.93,45.52,1009.78,2040.99,3115.99,2755.97,3167.99,599.98,596.54,25.32,0000 0000 0000 0000 000000
2017-07-19 02:20:01,0.00,1.19,0.00,20.74,25.02,28.01,13.99,45.64,1009.78,2040.99,3115.98,2755.93,3167.98,600.13,596.77,25.37,0000 0000 0000 0000 000000
2017-07-19 02:25:03,0.00,1.19,0.00,20.73,25.00,28.04,13.99,45.68,1009.78,2041.00,3115.99,2755.97,3167.98,599.64,596.31,25.42,0000 0000 0000 0000 000000
2017-07-19 02:30:04,0.00,1.19,0.00,20.71,25.00,28.00,13.95,45.58,1009.78,2041.01,3115.99,2755.98,3167.99,600.08,596.77,25.47,0000 0000 0000 0000 000000
2017-07-19 02:35:05,0.00,1.19,0.00,20.70,25.00,28.00,13.98,45.71,1009.79,2041.00,3115.99,2755.98,3167.99,599.98,596.70,25.52,0000 0000 0000 0000 000000
2017-07-19 02:40:07,0.00,1.19,0.00,20.71,24.99,28.01,13.93,45.59,1009.79,2041.01,3115.99,2755.99,3167.99,599.53,596.06,25.57,0000 0000 0000 0000 000000
2017-07-19 02:45:08,-0.00,1.19,0.00,20.71,24.97,28.01,13.93,45.51,1009.79,2041.03,3115.99,2755.99,3168.00,599.69,596.41,25.62,0000 0000 0000 0000 000000
2017-07-19 02:50:09,0.00,1.19,0.00,20.70,24.97,27.98,14.00,45.60,1009.79,2041.04,3115.99,2755.99,3168.00,600.24,596.87,25.67,0000 0000 0000 0000 000000
2017-07-19 02:55:11,-0.00,1.19,0.00,20.71,24.97,27.97,13.94,45.46,1009.81,2041.05,3115.99,2755.99,3168.00,599.92,596.69,25.72,0000 0000 0000 0000 000000
2017-07-19 03:00:12,0.01,1.19,0.00,20.69,24.97,27.97,14.05,45.68,1009.91,2041.15,3115.90,2755.98,3168.00,600.33,597.08,25.77,0000 0000 0000 0000 000000
2017-07-19 03:05:13,0.05,1.19,0.00,20.69,24.97,27.96,13.94,45.59,1009.84,2041.09,3114.86,2755.32,3167.38,599.77,596.42,25.82,0000 0000 0000 0000 000000
2017-07-19 03:10:15,-0.00,1.19,0.00,20.69,24.96,27.97,13.96,45.70,1009.80,2041.17,3114.80,2755.01,3167.00,600.11,596.72,25.87,0000 0000 0000 0000 000000
2017-07-19 03:15:16,-0.00,1.19,0.00,20.69,24.95,27.97,13.92,45.58,1009.83,2041.09,3114.75,2755.00,3166.99,599.45,596.14,25.92,0000 0000 0000 0000 000000
2017-07-19 03:20:17,0.04,1.19,0.00,20.69,24.95,27.96,13.89,45.58,1009.83,2041.38,3114.04,2754.99,3166.64,599.80,596.42,25.97,0000 0000 0000 0000 000000
2017-07-19 03:25:18,0.02,1.19,0.00,20.69,24.95,27.94,14.00,45.69,1009.95,2041.35,3113.85,2754.86,3166.02,600.04,596.80,26.02,0000 0000 0000 0000 000000
2017-07-19 03:30:20,0.01,1.19,0.00,20.69,24.94,27.94,13.95,45.62,1010.09,2041.20,3113.65,2754.68,3166.00,599.77,596.63,26.07,0000 0000 0000 0000 000000
2017-07-19 03:35:21,0.01,1.19,0.00,20.69,24.93,27.95,14.04,45.78,1010.08,2041.40,3113.76,2754.72,3166.00,600.31,597.24,26.12,0000 0000 0000 0000 000000
2017-07-19 03:40:22,-0.03,1.19,0.00,20.68,24.92,27.94,13.98,45.72,1010.17,2041.45,3113.92,2754.94,3166.01,599.97,596.85,26.17,0000 0000 0000 0000 000000
2017-07-19 03:45:23,0.02,1.19,0.00,20.68,24.92,27.92,13.94,45.73,1010.17,2041.49,3113.96,2754.97,3166.01,600.02,596.96,26.22,0000 0000 0000 0000 000000
2017-07-19 03:50:24,-0.01,1.19,0.00,20.69,24.92,27.95,13.91,45.60,1010.18,2041.36,3113.95,2754.94,3166.02,599.93,596.85,26.27,0000 0000 0000 0000 000000
2017-07-19 03:55:26,0.04,1.19,0.00,20.69,24.92,27.94,13.92,45.58,1010.24,2041.78,3113.56,2754.92,3166.03,599.64,596.58,26.32,0000 0000 0000 0000 000000
2017-07-19 04:00:27,0.01,1.20,0.00,20.69,24.92,27.94,13.96,45.55,1010.26,2041.93,3113.77,2754.95,3166.01,599.77,596.65,26.37,0000 0000 0000 0000 000000
2017-07-19 04:05:28,0.00,1.20,0.00,20.69,24.92,27.94,14.01,45.63,1010.27,2041.96,3113.70,2754.94,3166.02,600.15,597.16,26.42,0000 0000 0000 0000 000000
2017-07-19 04:10:29,0.03,1.20,0.00,20.69,24.91,27.93,14.05,45.70,1010.27,2041.99,3113.09,2754.52,3165.88,600.12,597.08,26.47,0000 0000 0000 0000 000000
2017-07-19 04:15:30,0.04,1.20,0.00,20.68,24.90,27.93,13.98,45.57,1010.28,2041.99,3112.25,2753.98,3165.05,600.08,597.10,26.52,0000 0000 0000 0000 000000
2017-07-19 04:20:31,0.00,1.20,0.00,20.67,24.90,27.92,13.94,45.30,1010.28,2041.98,3112.01,2753.85,3165.00,599.34,596.36,26.57,0000 0000 0000 0000 000000
2017-07-19 04:25:32,0.05,1.20,0.00,20.68,24.90,27.91,13.98,45.44,1010.27,2041.98,3111.25,2753.08,3164.29,600.12,597.14,26.62,0000 0000 0000 0000 000000
2017-07-19 04:30:34,0.00,1.20,0.00,20.69,24.90,27.92,13.96,45.46,1010.27,2041.99,3111.02,2753.00,3164.00,600.17,597.21,26.67,0000 0000 0000 0000 000000
2017-07-19 04:35:35,0.00,1.20,0.00,20.69,24.90,27.92,13.94,45.52,1010.28,2041.99,3111.03,2753.01,3164.01,599.72,596.72,26.72,0000 0000 0000 0000 000000
2017-07-19 04:40:36,0.00,1.20,0.00,20.69,24.90,27.92,14.01,45.51,1010.28,2041.99,3111.01,2753.00,3164.01,600.39,597.27,26.77,0000 0000 0000 0000 000000
2017-07-19 04:45:37,0.00,1.20,0.00,20.70,24.90,27.91,13.98,45.58,1010.28,2041.99,3111.09,2753.01,3164.01,600.05,597.01,26.82,0000 0000 0000 0000 000000
2017-07-19 04:50:39,0.00,1.20,0.00,20.71,24.90,27.92,14.03,45.59,1010.46,2041.99,3111.04,2753.01,3164.02,599.98,597.03,26.87,0000 0000 0000 0000 000000
2017-07-19 04:55:40,0.01,1.20,0.00,20.70,24.90,27.93,13.95,45.71,1010.46,2041.99,3110.58,2752.98,3163.89,599.88,596.85,26.92,0000 0000 0000 0000 000000
2017-07-19 05:00:41,0.01,1.20,0.00,20.72,24.89,27.92,14.01,45.71,1010.43,2041.99,3110.10,2752.94,3163.31,599.98,597.03,26.97,0000 0000 0000 0000 000000
2017-07-19 05:05:43,0.03,1.21,0.00,20.72,24.89,27.92,14.00,45.71,1010.44,2041.99,3109.97,2752.27,3163.01,600.41,597.36,27.02,0000 0000 0000 0000 000000
2017-07-19 05:10:44,0.00,1.21,0.00,20.73,24.89,27.92,14.00,45.67,1010.34,2041.99,3109.95,2752.11,3163.00,600.08,597.03,27.07,0000 0000 0000 0000 000000
2017-07-19 05:15:46,-0.00,1.21,0.00,20.74,24.90,27.93,14.00,45.80,1010.40,2041.99,3109.99,2752.18,3163.00,600.11,597.07,27.12,0000 0000 0000 0000 000000
2017-07-19 05:20:47,0.00,1.21,0.00,20.76,24.90,27.93,13.95,45.71,1010.62,2041.99,3109.95,2752.24,3163.00,599.70,596.77,27.17,0000 0000 0000 0000 000000
2017-07-19 05:25:48,0.02,1.21,0.00,20.77,24.90,27.92,13.98,45.66,1010.76,2041.99,3109.60,2752.02,3162.97,600.22,597.27,27.22,0000 0000 0000 0000 000000
2017-07-19 05:30:50,0.02,1.21,0.00,20.78,24.90,27.93,13.98,45.66,1010.77,2041.99,3109.17,2752.00,3162.31,599.80,596.95,27.27,0000 0000 0000 0000 000000
2017-07-19 05:35:51,0.00,1.21,0.00,20.78,24.90,27.96,14.04,45.68,1010.79,2041.99,3108.99,2752.00,3162.01,600.24,597.33,27.32,0000 0000 0000 0000 000000
2017-07-19 05:40:52,0.02,1.21,0.00,20.78,24.92,27.95,13.98,45.52,1010.92,2041.99,3108.32,2751.94,3161.96,600.27,597.52,27.37,0000 0000 0000 0000 000000
2017-07-19 05:45:54,0.01,1.21,0.00,20.79,24.92,27.95,14.02,45.56,1011.12,2041.99,3108.08,2751.83,3161.89,599.96,597.22,27.42,0000 0000 0000 0000 000000
2017-07-19 05:50:55,0.04,1.21,0.00,20.80,24.92,27.95,13.98,45.45,1011.17,2041.99,3107.93,2751.19,3161.26,599.73,597.07,27.47,0000 0000 0000 0000 000000
2017-07-19 05:55:56,0.00,1.21,0.00,20.80,24.92,27.96,14.10,45.67,1011.08,2041.99,3107.83,2751.02,3161.01,600.43,597.61,27.52,0000 0000 0000 0000 000000
2017-07-19 06:00:57,0.00,1.21,0.00,20.81,24.92,27.96,13.95,45.61,1011.06,2041.99,3107.99,2751.02,3161.00,600.15,597.28,27.57,0000 0000 0000 0000 000000
2017-07-19 06:05:59,0.00,1.21,0.00,20.82,24.92,27.98,13.95,45.64,1011.23,2041.99,3107.85,2751.01,3161.00,599.77,597.07,27.63,0000 0000 0000 0000 000000
2017-07-19 06:11:00,0.00,1.21,0.00,20.82,24.94,27.98,13.96,45.38,1011.24,2041.99,3107.91,2751.00,3161.00,599.68,596.96,27.68,0000 0000 0000 0000 000000
2017-07-19 06:16:01,0.01,1.21,0.00,20.82,24.95,27.98,13.97,45.45,1011.24,2041.99,3107.56,2751.00,3161.00,600.00,597.36,27.73,0000 0000 0000 0000 000000
2017-07-19 06:21:03,0.00,1.21,0.00,20.82,24.95,27.99,13.98,45.42,1011.25,2041.99,3107.05,2751.00,3160.97,600.21,597.37,27.78,0000 0000 0000 0000 000000
2017-07-19 06:26:04,0.00,1.21,0.00,20.83,24.95,28.00,14.02,45.63,1011.26,2041.99,3107.03,2751.00,3160.98,599.98,597.27,27.83,0000 0000 0000 0000 000000
2017-07-19 06:31:05,0.00,1.21,0.00,20.84,24.95,28.01,14.04,45.52,1011.26,2041.99,3107.00,2751.00,3160.97,600.11,597.31,27.88,0000 0000 0000 0000 000000
2017-07-19 06:36:06,0.00,1.21,0.00,20.84,24.95,28.00,13.97,45.46,1011.28,2041.99,3106.99,2750.98,3160.91,599.69,596.98,27.93,0000 0000 0000 0000 000000
2017-07-19 06:41:07,0.01,1.21,0.00,20.85,24.95,27.99,13.98,45.33,1011.31,2041.99,3106.98,2750.97,3160.62,600.10,597.32,27.98,0000 0000 0000 0000 000000
2017-07-19 06:46:09,0.01,1.21,0.00,20.87,24.95,27.99,13.97,45.34,1011.53,2041.99,3106.93,2750.95,3160.22,600.04,597.39,28.03,0000 0000 0000 0000 000000
2017-07-19 06:51:10,0.00,1.21,0.00,20.88,24.96,28.00,14.01,45.33,1011.66,2041.99,3106.82,2750.87,3160.06,600.22,597.53,28.08,0000 0000 0000 0000 000000
2017-07-19 06:56:11,0.03,1.21,0.00,20.89,24.97,28.00,13.92,45.22,1011.69,2041.99,3106.30,2750.45,3160.02,599.75,597.20,28.13,0000 0000 0000 0000 000000
2017-07-19 07:01:12,0.01,1.22,0.00,20.90,24.97,28.02,13.93,45.24,1011.73,2041.99,3106.09,2750.15,3160.01,600.08,597.65,28.18,0000 0000 0000 0000 000000
2017-07-19 07:06:14,0.00,1.22,0.00,20.91,24.97,28.02,14.00,45.56,1011.70,2041.99,3106.01,2750.01,3159.99,600.08,597.33,28.23,0000 0000 0000 0000 000000
2017-07-19 07:11:16,0.02,1.22,0.00,20.92,24.97,28.04,14.03,45.68,1011.72,2041.98,3105.63,2749.98,3159.25,600.26,597.67,28.28,0000 0000 0000 0000 000000
2017-07-19 07:16:17,0.00,1.22,0.00,20.92,24.97,28.07,13.90,45.39,1011.73,2041.98,3105.46,2749.90,3159.03,599.97,597.28,28.33,0000 0000 0000 0000 000000
2017-07-19 07:21:18,0.20,1.23,0.00,20.93,24.99,28.08,14.04,45.52,1011.73,2041.96,3101.92,2747.57,3156.69,600.17,597.52,28.38,0000 0000 0000 0000 000000
2017-07-19 07:26:20,0.00,1.23,0.00,20.92,25.00,28.08,14.03,45.46,1011.74,2041.95,3100.95,2746.94,3155.98,600.18,597.59,28.43,0000 0000 0000 0000 000000
2017-07-19 07:31:21,0.17,1.23,0.00,20.93,25.00,28.07,13.95,45.45,1011.73,2041.96,3098.57,2745.41,3154.33,599.94,597.29,28.48,0000 0000 0000 0000 000000
2017-07-19 07:36:22,0.36,1.25,0.00,20.93,25.00,28.08,13.96,45.64,1011.75,2041.91,3092.73,2741.61,3150.05,599.60,597.14,28.53,0000 0000 0000 0000 000000
2017-07-19 07:41:24,1.01,1.28,0.00,20.92,25.01,28.09,13.95,45.68,1011.78,2041.53,3077.34,2730.19,3137.42,599.89,597.28,28.58,0000 0000 0000 0000 000000
2017-07-19 07:46:25,0.50,1.33,0.00,20.93,25.02,28.09,13.97,45.59,1012.01,2041.41,3063.43,2719.77,3125.96,599.98,597.49,28.63,0000 0000 0000 0000 000000
2017-07-19 07:51:26,0.95,1.35,0.00,20.92,25.02,28.09,14.03,45.68,1012.10,2041.16,3051.16,2710.50,3115.76,600.13,597.58,28.68,0000 0000 0000 0000 000000
2017-07-19 07:56:28,0.96,1.41,0.00,20.92,25.02,28.10,13.95,45.51,1012.16,2041.08,3031.66,2695.97,3099.55,599.67,597.28,28.73,0000 0000 0000 0000 000000
2017-07-19 08:01:29,0.49,1.45,0.90,20.92,25.02,28.10,14.01,45.52,1012.17,2041.07,3020.99,2688.03,3090.64,599.97,597.55,28.78,0000 0000 0000 0000 000000
2017-07-19 08:06:30,0.08,1.46,1.00,20.92,25.02,28.11,14.01,45.47,1012.22,2041.09,3018.21,2686.05,3088.26,600.06,597.72,28.83,0000 0000 0000 0000 000000
2017-07-19 08:11:31,0.08,1.46,1.00,20.91,25.03,28.09,13.93,45.36,1012.22,2041.06,3017.06,2685.19,3087.25,599.99,597.58,28.88,0000 0000 0000 0000 000000
2017-07-19 08:16:33,0.39,1.47,1.00,20.92,25.04,28.14,13.98,45.42,1012.22,2041.02,3011.08,2680.68,3082.34,599.87,597.48,28.93,0000 0000 0000 0000 000000
2017-07-19 08:21:35,1.12,1.52,1.00,20.92,25.05,28.13,14.04,45.63,1012.25,2041.00,2994.53,2667.25,3067.62,600.19,597.86,28.98,0000 0000 0000 0000 000000
2017-07-19 08:26:36,0.40,1.55,1.00,20.92,25.05,28.11,13.98,45.50,1012.29,2041.00,2985.30,2659.99,3059.46,600.21,597.79,29.03,0000 0000 0000 0000 000000
2017-07-19 08:31:37,0.18,1.56,0.07,20.92,25.05,28.11,14.02,45.53,1012.58,2041.00,2982.45,2657.91,3057.15,599.95,597.80,29.08,0000 0000 0000 0000 000000
2017-07-19 08:36:38,0.28,1.57,0.00,20.91,25.05,28.11,14.00,45.49,1012.68,2041.00,2977.71,2654.60,3053.49,599.90,597.86,29.13,0000 0000 0000 0000 000000
2017-07-19 08:41:40,0.09,1.59,0.00,20.92,25.05,28.14,14.02,45.60,1012.71,2041.00,2975.02,2652.42,3051.09,600.00,597.91,29.18,0000 0000 0000 0000 000000
2017-07-19 08:46:41,0.12,1.59,0.00,20.91,25.05,28.13,13.99,45.51,1012.71,2041.00,2973.21,2651.40,3049.90,600.34,598.25,29.23,0000 0000 0000 0000 000000
2017-07-19 08:51:42,0.04,1.59,0.00,20.91,25.05,28.11,13.99,45.58,1012.71,2041.00,2971.97,2650.16,3048.94,599.70,597.69,29.28,0000 0000 0000 0000 000000
2017-07-19 08:56:44,0.03,1.59,0.00,20.89,25.05,28.13,13.92,45.71,1012.71,2041.00,2971.59,2650.04,3048.48,599.56,597.50,29.33,0000 0000 0000 0000 000000
2017-07-19 09:01:45,0.07,1.60,0.00,20.89,25.05,28.12,14.00,45.64,1012.73,2041.00,2970.35,2649.48,3047.53,599.93,597.82,29.38,0000 0000 0000 0000 000000
2017-07-19 09:06:47,0.23,1.60,0.00,20.88,25.05,28.12,13.99,45.56,1012.74,2041.00,2967.38,2647.45,3045.19,599.98,598.11,29.43,0000 0000 0000 0000 000000
2017-07-19 09:11:48,0.27,1.62,0.00,20.88,25.05,28.13,14.01,45.54,1012.75,2040.99,2961.79,2643.56,3040.80,599.86,597.78,29.48,0000 0000 0000 0000 000000
2017-07-19 09:16:49,0.20,1.63,0.00,20.88,25.05,28.12,13.98,45.66,1012.78,2040.99,2957.99,2640.98,3037.80,599.82,597.89,29.53,0000 0000 0000 0000 000000
2017-07-19 09:21:50,0.18,1.64,0.00,20.88,25.05,28.13,14.02,45.69,1012.79,2040.98,2954.70,2638.83,3035.13,600.00,598.07,29.58,0000 0000 0000 0000 000000
2017-07-19 09:26:51,0.26,1.65,0.00,20.87,25.05,28.11,14.03,45.73,1012.81,2040.98,2949.92,2635.72,3031.50,600.20,598.47,29.63,0000 0000 0000 0000 000000
2017-07-19 09:31:53,0.20,1.66,0.00,20.88,25.05,28.10,13.93,45.51,1012.86,2040.98,2946.32,2633.37,3028.70,599.81,598.05,29.68,0000 0000 0000 0000 000000
2017-07-19 09:36:54,0.15,1.68,0.00,20.87,25.05,28.11,14.04,45.54,1012.97,2040.99,2942.67,2631.15,3026.09,599.85,598.04,29.73,0000 0000 0000 0000 000000
2017-07-19 09:41:55,0.01,1.68,0.00,20.87,25.05,28.12,13.97,45.43,1013.08,2040.98,2942.11,2630.95,3025.73,599.85,598.11,29.78,0000 0000 0000 0000 000000
2017-07-19 09:46:56,0.01,1.68,0.00,20.86,25.05,28.11,14.02,45.67,1013.15,2040.98,2942.01,2630.85,3025.21,600.14,598.40,29.83,0000 0000 0000 0000 000000
2017-07-19 09:51:58,0.01,1.68,0.00,20.85,25.05,28.12,14.00,45.46,1013.20,2040.98,2942.00,2630.43,3025.02,599.91,598.11,29.88,0000 0000 0000 0000 000000
2017-07-19 09:56:59,0.01,1.68,0.00,20.87,25.05,28.11,14.03,45.57,1013.20,2040.98,2941.97,2630.11,3025.00,600.26,598.60,29.93,0000 0000 0000 0000 000000
2017-07-19 10:02:00,0.00,1.68,0.00,20.85,25.05,28.13,14.02,45.65,1013.20,2040.99,2941.93,2630.02,3024.98,599.94,598.29,29.98,0000 0000 0000 0000 000000
2017-07-19 10:07:01,0.00,1.68,0.00,20.84,25.05,28.09,13.96,45.52,1013.20,2040.98,2941.76,2630.01,3024.98,599.92,598.24,30.03,0000 0000 0000 0000 000000
2017-07-19 10:12:03,0.01,1.68,0.00,20.84,25.05,28.11,14.02,45.59,1013.20,2040.99,2941.30,2630.01,3024.94,600.29,598.58,30.08,0000 0000 0000 0000 000000
2017-07-19 10:17:04,0.05,1.68,0.00,20.84,25.05,28.10,14.05,45.63,1013.20,2040.99,2940.44,2629.63,3024.10,599.87,598.27,30.13,0000 0000 0000 0000 000000
2017-07-19 10:22:05,0.01,1.68,0.00,20.84,25.05,28.10,14.00,45.55,1013.20,2040.99,2940.01,2629.17,3023.98,599.98,598.24,30.18,0000 0000 0000 0000 000000
2017-07-19 10:27:06,0.00,1.68,0.00,20.84,25.04,28.09,14.02,45.57,1013.20,2040.99,2940.00,2629.08,3023.85,599.81,598.24,30.23,0000 0000 0000 0000 000000
2017-07-19 10:32:07,0.03,1.68,0.00,20.82,25.03,28.09,14.05,45.56,1013.20,2040.99,2939.26,2628.99,3023.05,599.83,598.15,30.28,0000 0000 0000 0000 000000
2017-07-19 10:37:09,0.01,1.69,0.00,20.82,25.03,28.08,14.03,45.51,1013.22,2040.99,2938.95,2628.89,3022.83,600.08,598.55,30.33,0000 0000 0000 0000 000000
2017-07-19 10:42:10,0.05,1.69,0.00,20.82,25.02,28.08,14.06,45.52,1013.22,2040.99,2938.21,2628.18,3022.06,600.16,598.53,30.38,0000 0000 0000 0000 000000
2017-07-19 10:47:11,0.07,1.69,0.00,20.81,25.02,28.07,14.02,45.51,1013.23,2040.99,2937.04,2627.65,3021.11,600.05,598.55,30.43,0000 0000 0000 0000 000000
2017-07-19 10:52:13,0.08,1.70,0.00,20.79,25.02,28.09,13.98,45.45,1013.33,2040.99,2935.32,2626.45,3020.03,599.78,598.35,30.48,0000 0000 0000 0000 000000
2017-07-19 10:57:14,-0.01,1.70,0.00,20.79,25.02,28.09,14.05,45.48,1013.55,2040.99,2935.26,2626.62,3019.98,600.30,598.97,30.53,0000 0000 0000 0000 000000
2017-07-19 11:02:15,0.01,1.70,0.00,20.79,25.02,28.09,14.00,45.53,1013.54,2040.99,2935.17,2626.52,3019.97,599.79,598.43,30.58,0000 0000 0000 0000 000000
2017-07-19 11:07:17,-0.03,1.70,0.00,20.78,25.02,28.06,14.07,45.72,1013.49,2040.99,2935.60,2626.78,3019.99,600.22,598.88,30.63,0000 0000 0000 0000 000000
2017-07-19 11:12:18,-0.00,1.69,0.00,20.78,25.01,28.06,14.04,45.53,1013.54,2040.99,2935.86,2626.96,3019.99,599.64,598.38,30.68,0000 0000 0000 0000 000000
2017-07-19 11:17:19,0.05,1.70,0.00,20.77,25.00,28.04,13.96,45.41,1013.58,2040.99,2935.22,2626.45,3019.65,599.93,598.69,30.73,0000 0000 0000 0000 000000
2017-07-19 11:22:20,0.02,1.70,0.00,20.77,25.00,28.05,14.04,45.71,1013.63,2040.99,2934.20,2625.99,3019.00,599.88,598.62,30.78,0000 0000 0000 0000 000000
2017-07-19 11:27:21,0.00,1.70,0.00,20.76,25.00,28.05,14.07,45.84,1013.68,2040.99,2934.00,2625.90,3018.87,600.36,599.09,30.83,0000 0000 0000 0000 000000
2017-07-19 11:32:22,0.00,1.70,0.00,20.76,24.99,28.05,14.06,45.66,1013.69,2040.99,2933.99,2625.88,3018.86,600.05,598.94,30.88,0000 0000 0000 0000 000000
2017-07-19 11:37:23,0.04,1.70,0.00,20.74,24.98,28.04,14.05,45.64,1013.69,2040.99,2933.71,2625.55,3018.46,600.14,599.01,30.93,0000 0000 0000 0000 000000
2017-07-19 11:42:24,0.05,1.70,0.00,20.73,24.97,28.02,14.02,45.53,1013.69,2041.00,2932.34,2624.90,3017.28,599.59,598.55,30.98,0000 0000 0000 0000 000000
2017-07-19 11:47:25,0.03,1.71,0.00,20.72,24.97,28.05,14.07,45.67,1013.69,2041.00,2932.00,2624.17,3017.00,600.35,599.27,31.03,0000 0000 0000 0000 000000
2017-07-19 11:52:27,0.02,1.71,0.00,20.72,24.97,28.03,14.01,45.58,1013.70,2041.00,2931.58,2623.99,3016.65,600.01,599.07,31.08,0000 0000 0000 0000 000000
2017-07-19 11:57:28,0.08,1.71,0.00,20.70,24.97,28.00,14.05,45.62,1013.69,2041.01,2930.17,2623.24,3015.50,599.98,598.87,31.14,0000 0000 0000 0000 000000
2017-07-19 12:02:29,0.08,1.71,0.00,20.69,24.97,28.02,14.05,45.64,1013.71,2041.01,2928.71,2622.43,3014.18,599.98,599.02,31.19,0000 0000 0000 0000 000000
2017-07-19 12:07:30,0.05,1.72,0.00,20.68,24.96,27.99,14.06,45.81,1013.75,2041.03,2927.67,2621.81,3013.26,600.19,599.21,31.24,0000 0000 0000 0000 000000
2017-07-19 12:12:32,0.04,1.72,0.00,20.67,24.95,28.00,13.98,45.74,1013.78,2041.04,2926.97,2621.04,3012.39,599.73,598.81,31.29,0000 0000 0000 0000 000000
2017-07-19 12:17:33,-0.00,1.72,0.00,20.67,24.95,27.98,14.04,45.69,1013.87,2041.04,2926.95,2621.01,3012.44,600.04,599.19,31.34,0000 0000 0000 0000 000000
2017-07-19 12:22:34,-0.01,1.72,0.00,20.65,24.95,27.96,14.01,45.50,1013.87,2041.05,2926.94,2621.03,3012.73,600.03,599.14,31.39,0000 0000 0000 0000 000000
2017-07-19 12:27:36,0.03,1.72,0.00,20.65,24.93,27.96,14.05,45.69,1013.95,2041.05,2926.10,2620.98,3012.05,600.05,599.29,31.44,0000 0000 0000 0000 000000
2017-07-19 12:32:37,0.06,1.72,0.00,20.64,24.92,27.97,14.04,45.67,1014.00,2041.04,2925.49,2620.39,3011.44,600.14,599.36,31.49,0000 0000 0000 0000 000000
2017-07-19 12:37:39,-0.00,1.72,0.00,20.63,24.92,27.97,14.06,45.75,1014.00,2041.05,2925.26,2620.14,3011.20,599.95,599.22,31.54,0000 0000 0000 0000 000000
2017-07-19 12:42:40,0.01,1.73,0.00,20.62,24.92,27.94,14.12,45.85,1014.05,2041.11,2925.12,2620.07,3011.14,600.09,599.34,31.59,0000 0000 0000 0000 000000
2017-07-19 12:47:41,0.00,1.73,0.00,20.62,24.91,27.95,14.02,45.77,1014.11,2041.13,2925.05,2620.05,3011.07,599.94,599.47,31.64,0000 0000 0000 0000 000000
2017-07-19 12:52:43,-0.01,1.73,0.00,20.60,24.90,27.92,14.08,45.73,1014.14,2041.09,2925.11,2620.13,3011.24,600.00,599.43,31.69,0000 0000 0000 0000 000000
2017-07-19 12:57:44,-0.01,1.72,0.00,20.59,24.90,27.92,14.01,45.63,1014.16,2041.35,2925.58,2620.61,3011.78,599.98,599.45,31.74,0000 0000 0000 0000 000000